Weather History for Fond du Lac, WI

Change the Weather History Date:

Thursday, April 10, 2014

  Actual Average Record
Temperature  
Mean Temperature 54 °F -  
Max Temperature 64 °F 50 °F 80 °F (1977)
Min Temperature 36 °F 31 °F 17 °F (1960)
Degree Days  
Heating Degree Days 11    
Growing Degree Days 4 (Base 50)    
Moisture  
Dew Point 26 °F    
Average Humidity 37    
Maximum Humidity 62    
Minimum Humidity 15    
Precipitation  
Precipitation 0.00 in - - ()
Sea Level Pressure  
Sea Level Pressure 29.73 in    
Wind  
Wind Speed 15 mph (West)    
Max Wind Speed 22 mph    
Max Gust Speed 36 mph    
Visibility 10 miles    
Events      
Averages and records for this station are not official NWS values.
T = Trace of Precipitation, MM = Missing Value Source: NWS Daily Summary

Daily Weather History Graph

Daily Weather History Graph

Search for Another Location

Airport:

Trip Planner

Search our weather history database for the weather conditions in past years. The results will help you decide how hot, cold, wet, or windy it might be!

Date:

Astronomy

Apr. 10, 2014 Rise Set
Actual Time 6:19 AM CDT 7:31 PM CDT
Civil Twilight 5:50 AM CDT 8:01 PM CDT
Nautical Twilight 5:14 AM CDT 8:36 PM CDT
Astronomical Twilight 4:37 AM CDT 9:14 PM CDT
Moon 3:07 PM CDT (4/10) 3:50 AM CDT (4/10)
Length of Visible Light 14h 11m
Length of Day
13h 12m
Waxing Gibbous, 80% of the Moon is Illuminated
Apr 10
Waxing Gibbous
Apr 15
Full
Apr 22
Last Quarter
Apr 29
New
May 6
First Quarter

Hourly Weather History & Observations

Time (CDT) Temp. Windchill Dew Point Humidity Pressure Visibility Wind Dir Wind Speed Gust Speed Precip Events Conditions
12:53 AM 53.1 °F - 32.0 °F 45% 29.65 in 10.0 mi SSW 20.7 mph 35.7 mph N/A   Clear
1:53 AM 52.0 °F - 32.0 °F 47% 29.62 in 10.0 mi SSW 19.6 mph 29.9 mph N/A   Clear
2:53 AM 52.0 °F - 32.0 °F 47% 29.60 in 10.0 mi SSW 18.4 mph 27.6 mph N/A   Clear
3:53 AM 52.0 °F - 32.0 °F 47% 29.58 in 10.0 mi SSW 18.4 mph 25.3 mph N/A   Clear
4:53 AM 51.1 °F - 32.0 °F 48% 29.59 in 10.0 mi SSW 16.1 mph 26.5 mph N/A   Mostly Cloudy
5:53 AM 48.9 °F - 32.0 °F 52% 29.61 in 10.0 mi SW 15.0 mph - N/A   Clear
6:53 AM 48.0 °F - 33.1 °F 56% 29.62 in 10.0 mi SSW 10.4 mph - N/A   Clear
7:53 AM 50.0 °F - 33.1 °F 52% 29.64 in 10.0 mi SW 10.4 mph - N/A   Clear
9:53 AM 55.9 °F - 36.0 °F 47% 29.64 in 10.0 mi NW 10.4 mph - N/A   Partly Cloudy
10:53 AM 54.0 °F - 35.1 °F 49% 29.69 in 10.0 mi WNW 18.4 mph 24.2 mph N/A   Mostly Cloudy
11:53 AM 55.9 °F - 34.0 °F 44% 29.70 in 10.0 mi NW 11.5 mph - N/A   Mostly Cloudy
12:53 PM 57.9 °F - 21.9 °F 25% 29.72 in 10.0 mi NW 13.8 mph 24.2 mph N/A   Clear
1:53 PM 61.0 °F - 18.0 °F 19% 29.72 in 10.0 mi WNW 21.9 mph 27.6 mph N/A   Clear
2:53 PM 62.1 °F - 14.0 °F 15% 29.72 in 10.0 mi NW 21.9 mph 31.1 mph N/A   Clear
3:53 PM 63.0 °F - 17.1 °F 17% 29.73 in 10.0 mi WNW 13.8 mph 31.1 mph N/A   Clear
4:53 PM 63.0 °F - 17.1 °F 17% 29.75 in 10.0 mi WNW 16.1 mph - N/A   Clear
5:53 PM 62.1 °F - 17.1 °F 18% 29.78 in 10.0 mi WNW 13.8 mph 25.3 mph N/A   Clear
6:53 PM 57.9 °F - 18.0 °F 21% 29.81 in 10.0 mi WNW 10.4 mph - N/A   Clear
7:53 PM 51.1 °F - 23.0 °F 33% 29.84 in 10.0 mi NW 4.6 mph - N/A   Clear
8:53 PM 48.0 °F - 19.9 °F 33% 29.89 in 10.0 mi NW 5.8 mph - N/A   Clear
9:53 PM 48.0 °F - 17.1 °F 29% 29.91 in 10.0 mi NW 6.9 mph - N/A   Clear
10:53 PM 45.0 °F 41.8 °F 18.0 °F 34% 29.93 in 10.0 mi WNW 5.8 mph - N/A   Clear
11:53 PM 36.0 °F - 24.1 °F 62% 29.94 in 10.0 mi Calm Calm - N/A   Clear